Terminal Aerodrome Forecast
Issued by NWS Twin Cities, MN

Home | Current Version | Previous Version | Graphics & Text | Print | Product List | Glossary On
Versions: 1 2 3 4 5 6 7 8 9 10 11 12 13 14 15 16 17
000
FTUS43 KMPX 071100
TAFEAU
TAF
KEAU 071120Z 0712/0812 27005KT P6SM BKN150
     FM071600 27008KT P6SM SCT040 BKN080
      TEMPO 0722/0802 3SM -TSRA OVC025CB
     FM080200 26005KT P6SM -SHRA VCTS OVC040CB
     FM080700 29005KT P6SM BKN100=

USA.gov is the U.S. government's official web portal to all federal, state and local government web resources and services.